Time,TemperatureF,DewpointF,PressureIn,WindDirection,WindDirectionDegrees,WindSpeedMPH,WindSpeedGustMPH,Humidity,HourlyPrecipIn,Conditions,Clouds,dailyrainin,SolarRadiationWatts/m^2,SoftwareType,DateUTC
2013-06-15 00:02:00,68.2,61.8,29.85,SSE,157,5.0,5.0,80,0.00,,OVC075,0.00,0.00,VWS V14.01,2013-06-15 05:02:00,
2013-06-15 00:07:00,68.2,61.8,29.85,SSE,165,5.0,5.0,80,0.00,,OVC075,0.00,0.00,VWS V14.01,2013-06-15 05:07:00,
2013-06-15 00:12:00,68.2,61.8,29.85,South,171,5.0,5.0,80,0.00,,OVC075,0.00,0.00,VWS V14.01,2013-06-15 05:12:00,
2013-06-15 00:17:00,68.2,61.8,29.85,SSE,152,4.0,4.0,80,0.00,,OVC075,0.00,0.00,VWS V14.01,2013-06-15 05:17:00,
2013-06-15 00:22:00,68.2,62.2,29.86,SSE,167,5.0,6.0,81,0.00,,OVC075,0.00,0.00,VWS V14.01,2013-06-15 05:22:00,
2013-06-15 00:27:00,68.1,61.7,29.86,SSE,163,5.0,6.0,80,0.00,,OVC075,0.00,0.00,VWS V14.01,2013-06-15 05:27:00,
2013-06-15 00:32:00,68.2,61.8,29.86,SSE,162,4.0,5.0,80,0.00,,OVC075,0.00,0.00,VWS V14.01,2013-06-15 05:32:00,
2013-06-15 00:37:00,68.2,61.8,29.86,SSE,165,4.0,5.0,80,0.00,,OVC075,0.00,0.00,VWS V14.01,2013-06-15 05:37:00,
2013-06-15 00:42:00,68.2,61.8,29.86,South,169,9.0,9.0,80,0.00,,OVC075,0.00,0.00,VWS V14.01,2013-06-15 05:42:00,
2013-06-15 00:47:00,68.1,61.7,29.86,SSE,163,5.0,6.0,80,0.00,,OVC075,0.00,0.00,VWS V14.01,2013-06-15 05:47:00,
2013-06-15 00:52:00,68.1,61.7,29.86,SSE,154,5.0,5.0,80,0.00,,OVC075,0.00,0.00,VWS V14.01,2013-06-15 05:52:00,
2013-06-15 00:57:00,68.0,61.6,29.86,South,169,9.0,9.0,80,0.00,,OVC075,0.00,0.00,VWS V14.01,2013-06-15 05:57:00,
2013-06-15 01:02:00,68.3,61.5,29.86,South,169,10.0,11.0,79,0.00,,OVC033,0.00,0.00,VWS V14.01,2013-06-15 06:02:00,
2013-06-15 01:07:00,68.2,61.5,29.86,SSE,160,12.0,13.0,79,0.00,,OVC033,0.00,0.00,VWS V14.01,2013-06-15 06:07:00,
2013-06-15 01:12:00,68.4,61.6,29.86,SSE,168,10.0,12.0,79,0.00,,OVC033,0.00,0.00,VWS V14.01,2013-06-15 06:12:00,
2013-06-15 01:17:00,68.3,61.5,29.87,SSE,157,12.0,12.0,79,0.00,,OVC033,0.00,0.00,VWS V14.01,2013-06-15 06:17:00,
2013-06-15 01:22:00,68.3,61.5,29.86,SSE,159,10.0,11.0,79,0.00,,OVC033,0.00,0.00,VWS V14.01,2013-06-15 06:22:00,
2013-06-15 01:27:00,68.2,61.5,29.86,SSE,159,7.0,9.0,79,0.00,,OVC033,0.00,0.00,VWS V14.01,2013-06-15 06:27:00,
2013-06-15 01:32:00,68.1,61.3,29.87,South,177,10.0,13.0,79,0.00,,OVC033,0.00,0.00,VWS V14.01,2013-06-15 06:32:00,
2013-06-15 01:37:00,68.1,61.3,29.87,SSE,147,9.0,9.0,79,0.00,,OVC033,0.00,0.00,VWS V14.01,2013-06-15 06:37:00,
2013-06-15 01:42:00,68.0,61.2,29.86,South,175,10.0,10.0,79,0.00,,OVC033,0.00,0.00,VWS V14.01,2013-06-15 06:42:00,
2013-06-15 01:47:00,68.0,61.6,29.86,SSE,167,10.0,11.0,80,0.00,,OVC033,0.00,0.00,VWS V14.01,2013-06-15 06:47:00,
2013-06-15 01:52:00,67.9,61.2,29.86,South,186,6.0,7.0,79,0.00,,OVC033,0.00,0.00,VWS V14.01,2013-06-15 06:52:00,
2013-06-15 01:57:00,67.8,61.4,29.86,SSE,159,11.0,13.0,80,0.00,,OVC033,0.00,0.00,VWS V14.01,2013-06-15 06:57:00,
2013-06-15 02:02:00,67.7,61.7,29.86,South,176,11.0,14.0,81,0.00,,OVC033,0.00,0.00,VWS V14.01,2013-06-15 07:02:00,
2013-06-15 02:08:00,67.6,61.6,29.86,South,173,9.0,10.0,81,0.00,,OVC033,0.00,0.00,VWS V14.01,2013-06-15 07:08:00,
2013-06-15 02:13:00,67.5,61.5,29.86,SSE,165,11.0,11.0,81,0.00,,OVC033,0.00,0.00,VWS V14.01,2013-06-15 07:13:00,
2013-06-15 02:18:00,67.5,61.5,29.86,SSE,159,11.0,11.0,81,0.00,,OVC033,0.00,0.00,VWS V14.01,2013-06-15 07:18:00,
2013-06-15 02:23:00,67.4,61.4,29.86,SSE,163,8.0,10.0,81,0.00,,OVC033,0.00,0.00,VWS V14.01,2013-06-15 07:23:00,
2013-06-15 02:28:00,67.3,61.6,29.86,SSE,168,7.0,7.0,82,0.00,,OVC033,0.00,0.00,VWS V14.01,2013-06-15 07:28:00,
2013-06-15 02:33:00,67.0,61.3,29.85,SSE,161,5.0,5.0,82,0.00,,OVC033,0.00,0.00,VWS V14.01,2013-06-15 07:33:00,
2013-06-15 02:38:00,66.8,61.5,29.86,SSE,161,9.0,9.0,83,0.00,,OVC033,0.00,0.00,VWS V14.01,2013-06-15 07:38:00,
2013-06-15 02:43:00,66.6,61.3,29.86,South,173,7.0,9.0,83,0.00,,OVC033,0.00,0.00,VWS V14.01,2013-06-15 07:43:00,
2013-06-15 02:48:00,66.5,61.5,29.85,SSE,155,5.0,6.0,84,0.00,,OVC033,0.00,0.00,VWS V14.01,2013-06-15 07:48:00,
2013-06-15 02:53:00,66.4,61.8,29.86,SSE,168,5.0,6.0,85,0.00,,OVC033,0.00,0.00,VWS V14.01,2013-06-15 07:53:00,
2013-06-15 02:58:00,66.3,61.7,29.86,South,171,9.0,9.0,85,0.00,,OVC033,0.00,0.00,VWS V14.01,2013-06-15 07:58:00,
2013-06-15 03:03:00,66.4,61.8,29.86,SSE,167,9.0,10.0,85,0.00,,BKN055,0.00,0.00,VWS V14.01,2013-06-15 08:03:00,
2013-06-15 03:08:00,66.4,61.8,29.85,SE,146,11.0,11.0,85,0.00,,BKN055,0.00,0.00,VWS V14.01,2013-06-15 08:08:00,
2013-06-15 03:13:00,66.4,61.8,29.85,SSE,161,9.0,9.0,85,0.00,,BKN055,0.00,0.00,VWS V14.01,2013-06-15 08:13:00,
2013-06-15 03:18:00,66.3,61.7,29.85,SSE,153,8.0,8.0,85,0.00,,BKN055,0.00,0.00,VWS V14.01,2013-06-15 08:18:00,
2013-06-15 03:23:00,66.2,61.9,29.85,South,172,9.0,11.0,86,0.00,,BKN055,0.00,0.00,VWS V14.01,2013-06-15 08:23:00,
2013-06-15 03:28:00,66.2,61.9,29.85,SSE,156,9.0,10.0,86,0.00,,BKN055,0.00,0.00,VWS V14.01,2013-06-15 08:28:00,
2013-06-15 03:33:00,66.2,61.9,29.85,SSE,155,10.0,11.0,86,0.00,,BKN055,0.00,0.00,VWS V14.01,2013-06-15 08:33:00,
2013-06-15 03:38:00,66.1,61.8,29.85,South,174,6.0,10.0,86,0.00,,BKN055,0.00,0.00,VWS V14.01,2013-06-15 08:38:00,
2013-06-15 03:43:00,66.1,62.1,29.85,South,177,11.0,12.0,87,0.00,,BKN055,0.00,0.00,VWS V14.01,2013-06-15 08:43:00,
2013-06-15 03:48:00,66.0,62.0,29.86,SSE,165,7.0,7.0,87,0.00,,BKN055,0.00,0.00,VWS V14.01,2013-06-15 08:48:00,
2013-06-15 03:54:00,66.0,62.0,29.85,SSE,156,10.0,10.0,87,0.00,,BKN055,0.00,0.00,VWS V14.01,2013-06-15 08:54:00,
2013-06-15 03:59:00,66.0,62.0,29.86,SSE,159,6.0,7.0,87,0.00,,BKN055,0.00,0.00,VWS V14.01,2013-06-15 08:59:00,
2013-06-15 04:04:00,65.9,61.9,29.86,SSE,161,7.0,8.0,87,0.00,,OVC033,0.00,0.00,VWS V14.01,2013-06-15 09:04:00,
2013-06-15 04:09:00,65.7,62.0,29.86,SSE,168,6.0,9.0,88,0.00,,OVC033,0.00,0.00,VWS V14.01,2013-06-15 09:09:00,
2013-06-15 04:14:00,65.5,61.9,29.86,South,170,9.0,9.0,88,0.00,,OVC033,0.00,0.00,VWS V14.01,2013-06-15 09:14:00,
2013-06-15 04:19:00,65.3,62.0,29.86,South,187,5.0,6.0,89,0.00,,OVC033,0.00,0.00,VWS V14.01,2013-06-15 09:19:00,
2013-06-15 04:24:00,65.1,61.8,29.86,SSE,160,6.0,6.0,89,0.00,,OVC033,0.00,0.00,VWS V14.01,2013-06-15 09:24:00,
2013-06-15 04:29:00,64.9,61.6,29.85,SSE,165,6.0,6.0,89,0.00,,OVC033,0.00,0.00,VWS V14.01,2013-06-15 09:29:00,
2013-06-15 04:34:00,64.7,61.4,29.85,SSE,163,5.0,5.0,89,0.00,,OVC033,0.00,0.00,VWS V14.01,2013-06-15 09:34:00,
2013-06-15 04:39:00,64.4,61.4,29.85,SSE,161,2.0,4.0,90,0.00,,OVC033,0.00,0.00,VWS V14.01,2013-06-15 09:39:00,
2013-06-15 04:44:00,64.2,61.2,29.86,South,190,0.0,0.0,90,0.00,,OVC033,0.00,0.00,VWS V14.01,2013-06-15 09:44:00,
2013-06-15 04:49:00,64.0,61.0,29.86,South,171,2.0,3.0,90,0.00,,OVC033,0.00,0.00,VWS V14.01,2013-06-15 09:49:00,
2013-06-15 04:54:00,63.7,61.0,29.86,South,177,2.0,2.0,91,0.00,,OVC033,0.00,0.00,VWS V14.01,2013-06-15 09:54:00,
2013-06-15 04:59:00,63.4,60.7,29.86,South,187,5.0,6.0,91,0.00,,OVC033,0.00,0.00,VWS V14.01,2013-06-15 09:59:00,
2013-06-15 05:04:00,63.4,61.0,29.86,South,178,2.0,3.0,92,0.00,,FEW015,0.00,0.00,VWS V14.01,2013-06-15 10:04:00,
2013-06-15 05:09:00,63.3,60.9,29.86,South,178,2.0,2.0,92,0.00,,FEW015,0.00,0.00,VWS V14.01,2013-06-15 10:09:00,
2013-06-15 05:14:00,63.0,60.6,29.86,South,178,0.0,0.0,92,0.00,,FEW015,0.00,0.00,VWS V14.01,2013-06-15 10:14:00,
2013-06-15 05:19:00,62.8,60.5,29.86,South,178,0.0,1.0,92,0.00,,FEW015,0.00,0.00,VWS V14.01,2013-06-15 10:19:00,
2013-06-15 05:24:00,62.8,60.8,29.86,South,178,1.0,1.0,93,0.00,,FEW015,0.00,0.00,VWS V14.01,2013-06-15 10:24:00,
2013-06-15 05:29:00,62.6,60.5,29.86,South,178,0.0,1.0,93,0.00,,FEW015,0.00,0.00,VWS V14.01,2013-06-15 10:29:00,
2013-06-15 05:34:00,62.5,60.5,29.86,South,178,0.0,0.0,93,0.00,,FEW015,0.00,0.00,VWS V14.01,2013-06-15 10:34:00,
2013-06-15 05:39:00,62.4,60.3,29.86,South,178,0.0,0.0,93,0.00,,FEW015,0.00,5.00,VWS V14.01,2013-06-15 10:39:00,
2013-06-15 05:44:00,62.3,60.2,29.86,South,178,0.0,0.0,93,0.00,,FEW015,0.00,9.00,VWS V14.01,2013-06-15 10:44:00,
2013-06-15 05:49:00,62.3,60.6,29.86,South,178,0.0,0.0,94,0.00,,FEW015,0.00,12.00,VWS V14.01,2013-06-15 10:49:00,
2013-06-15 05:54:00,62.4,60.7,29.86,South,178,0.0,1.0,94,0.00,,FEW015,0.00,12.00,VWS V14.01,2013-06-15 10:54:00,
2013-06-15 05:59:00,62.4,60.7,29.85,South,171,0.0,0.0,94,0.00,,FEW015,0.00,19.00,VWS V14.01,2013-06-15 10:59:00,
2013-06-15 06:04:00,62.3,60.6,29.85,South,171,0.0,0.0,94,0.00,,CLR,0.00,28.00,VWS V14.01,2013-06-15 11:04:00,
2013-06-15 06:09:00,62.0,60.3,29.85,South,171,0.0,0.0,94,0.00,,CLR,0.00,32.00,VWS V14.01,2013-06-15 11:09:00,
2013-06-15 06:14:00,61.8,60.1,29.85,South,171,0.0,0.0,94,0.00,,CLR,0.00,37.00,VWS V14.01,2013-06-15 11:14:00,
2013-06-15 06:19:00,61.7,60.0,29.85,South,171,0.0,0.0,94,0.00,,CLR,0.00,39.00,VWS V14.01,2013-06-15 11:19:00,
2013-06-15 06:24:00,61.7,60.3,29.86,South,171,0.0,0.0,95,0.00,,CLR,0.00,49.00,VWS V14.01,2013-06-15 11:24:00,
2013-06-15 06:30:00,62.0,60.6,29.86,South,171,0.0,0.0,95,0.00,,CLR,0.00,56.00,VWS V14.01,2013-06-15 11:30:00,
2013-06-15 06:35:00,62.4,61.0,29.86,South,171,0.0,0.0,95,0.00,,CLR,0.00,70.00,VWS V14.01,2013-06-15 11:35:00,
2013-06-15 06:40:00,62.7,61.2,29.86,South,171,0.0,0.0,95,0.00,,CLR,0.00,114.00,VWS V14.01,2013-06-15 11:40:00,
2013-06-15 06:45:00,63.1,61.9,29.86,South,171,0.0,0.0,96,0.00,,CLR,0.00,125.00,VWS V14.01,2013-06-15 11:45:00,
2013-06-15 06:50:00,63.7,62.5,29.86,South,171,0.0,0.0,96,0.00,,CLR,0.00,135.00,VWS V14.01,2013-06-15 11:50:00,
2013-06-15 06:55:00,64.0,62.5,29.86,South,171,4.0,4.0,95,0.00,,CLR,0.00,142.00,VWS V14.01,2013-06-15 11:55:00,
2013-06-15 07:00:00,64.2,62.7,29.87,South,184,3.0,4.0,95,0.00,,CLR,0.00,160.00,VWS V14.01,2013-06-15 12:00:00,
2013-06-15 07:05:00,64.5,62.7,29.87,South,183,4.0,5.0,94,0.00,,BKN037,0.00,195.00,VWS V14.01,2013-06-15 12:05:00,
2013-06-15 07:10:00,64.9,63.1,29.87,South,184,5.0,5.0,94,0.00,,BKN037,0.00,181.00,VWS V14.01,2013-06-15 12:10:00,
2013-06-15 07:15:00,65.0,62.9,29.87,South,183,6.0,7.0,93,0.00,,BKN037,0.00,218.00,VWS V14.01,2013-06-15 12:15:00,
2013-06-15 07:20:00,65.1,63.0,29.88,SSW,209,4.0,10.0,93,0.00,,BKN037,0.00,155.00,VWS V14.01,2013-06-15 12:20:00,
2013-06-15 07:25:00,65.2,63.1,29.88,South,175,3.0,4.0,93,0.00,,BKN037,0.00,153.00,VWS V14.01,2013-06-15 12:25:00,
2013-06-15 07:30:00,65.4,63.3,29.88,South,186,6.0,6.0,93,0.00,,BKN037,0.00,214.00,VWS V14.01,2013-06-15 12:30:00,
2013-06-15 07:35:00,65.7,63.6,29.88,SSW,200,3.0,3.0,93,0.00,,BKN037,0.00,232.00,VWS V14.01,2013-06-15 12:35:00,
2013-06-15 07:40:00,65.8,63.4,29.89,SSW,205,5.0,5.0,92,0.00,,BKN037,0.00,195.00,VWS V14.01,2013-06-15 12:40:00,
2013-06-15 07:45:00,65.8,63.4,29.89,SSW,199,3.0,3.0,92,0.00,,BKN037,0.00,102.00,VWS V14.01,2013-06-15 12:45:00,
2013-06-15 07:50:00,65.9,63.5,29.88,South,190,0.0,0.0,92,0.00,,BKN037,0.00,156.00,VWS V14.01,2013-06-15 12:50:00,
2013-06-15 07:55:00,66.0,63.6,29.88,WSW,249,1.0,2.0,92,0.00,,BKN037,0.00,183.00,VWS V14.01,2013-06-15 12:55:00,
2013-06-15 08:00:00,66.1,63.4,29.88,South,180,2.0,2.0,91,0.00,,BKN037,0.00,220.00,VWS V14.01,2013-06-15 13:00:00,
2013-06-15 08:05:00,66.4,63.7,29.88,SW,223,0.0,0.0,91,0.00,,SCT010,0.00,267.00,VWS V14.01,2013-06-15 13:05:00,
2013-06-15 08:10:00,66.7,64.0,29.88,NW,306,3.0,3.0,91,0.00,,SCT008,0.00,251.00,VWS V14.01,2013-06-15 13:10:00,
2013-06-15 08:15:00,66.9,64.2,29.87,NW,311,1.0,2.0,91,0.00,,SCT008,0.00,232.00,VWS V14.01,2013-06-15 13:15:00,
2013-06-15 08:20:00,67.3,64.3,29.86,NNW,340,2.0,3.0,90,0.00,,SCT008,0.00,290.00,VWS V14.01,2013-06-15 13:20:00,
2013-06-15 08:25:00,67.8,64.8,29.86,WNW,296,4.0,5.0,90,0.00,,SCT008,0.00,304.00,VWS V14.01,2013-06-15 13:25:00,
2013-06-15 08:30:00,68.0,65.0,29.86,NW,321,3.0,4.0,90,0.00,,SCT008,0.00,262.00,VWS V14.01,2013-06-15 13:30:00,
2013-06-15 08:35:00,68.3,64.9,29.86,NW,321,3.0,4.0,89,0.00,,SCT008,0.00,290.00,VWS V14.01,2013-06-15 13:35:00,
2013-06-15 08:40:00,68.6,65.2,29.86,NNW,330,1.0,2.0,89,0.00,,SCT008,0.00,338.00,VWS V14.01,2013-06-15 13:40:00,
2013-06-15 08:45:00,68.7,65.0,29.87,NW,309,0.0,0.0,88,0.00,,SCT008,0.00,309.00,VWS V14.01,2013-06-15 13:45:00,
2013-06-15 08:50:00,69.0,65.3,29.87,NW,309,4.0,5.0,88,0.00,,SCT008,0.00,366.00,VWS V14.01,2013-06-15 13:50:00,
2013-06-15 08:55:00,69.3,65.6,29.88,NW,313,4.0,5.0,88,0.00,,SCT008,0.00,385.00,VWS V14.01,2013-06-15 13:55:00,
2013-06-15 09:00:00,69.7,65.7,29.89,WNW,302,3.0,6.0,87,0.00,,SCT008,0.00,355.00,VWS V14.01,2013-06-15 14:00:00,
2013-06-15 09:05:00,69.9,66.2,29.89,West,260,2.0,4.0,88,0.00,,FEW012,0.00,318.00,VWS V14.01,2013-06-15 14:05:00,
2013-06-15 09:10:00,70.0,65.6,29.89,WNW,296,6.0,6.0,86,0.00,,FEW012,0.00,290.00,VWS V14.01,2013-06-15 14:10:00,
2013-06-15 09:15:00,69.9,65.5,29.89,NW,304,8.0,8.0,86,0.00,,FEW012,0.00,341.00,VWS V14.01,2013-06-15 14:15:00,
2013-06-15 09:20:00,70.0,66.0,29.88,NNW,329,4.0,4.0,87,0.00,,FEW012,0.00,369.00,VWS V14.01,2013-06-15 14:20:00,
2013-06-15 09:25:00,70.3,66.2,29.88,NNW,339,9.0,9.0,87,0.00,,FEW012,0.00,403.00,VWS V14.01,2013-06-15 14:25:00,
2013-06-15 09:30:00,70.7,66.7,29.88,NNW,338,7.0,7.0,87,0.00,,FEW012,0.00,429.00,VWS V14.01,2013-06-15 14:30:00,
2013-06-15 09:35:00,71.1,66.4,29.88,NNW,333,6.0,7.0,85,0.00,,FEW012,0.00,394.00,VWS V14.01,2013-06-15 14:35:00,
2013-06-15 09:40:00,71.3,66.2,29.88,NW,321,5.0,5.0,84,0.00,,FEW012,0.00,439.00,VWS V14.01,2013-06-15 14:40:00,
2013-06-15 09:45:00,71.6,67.2,29.88,NW,315,5.0,6.0,86,0.00,,FEW012,0.00,503.00,VWS V14.01,2013-06-15 14:45:00,
2013-06-15 09:50:00,71.9,66.8,29.89,North,5,5.0,7.0,84,0.00,,FEW012,0.00,527.00,VWS V14.01,2013-06-15 14:50:00,
2013-06-15 09:55:00,72.3,66.8,29.89,NNW,341,6.0,6.0,83,0.00,,FEW012,0.00,429.00,VWS V14.01,2013-06-15 14:55:00,
2013-06-15 10:00:00,72.4,66.6,29.89,NW,320,5.0,6.0,82,0.00,,FEW012,0.00,336.00,VWS V14.01,2013-06-15 15:00:00,
2013-06-15 10:05:00,72.1,66.3,29.90,NNW,331,9.0,10.0,82,0.00,,SCT016,0.00,313.00,VWS V14.01,2013-06-15 15:05:00,
2013-06-15 10:10:00,71.8,66.4,29.89,North,355,11.0,11.0,83,0.00,,BKN016,0.00,306.00,VWS V14.01,2013-06-15 15:10:00,
2013-06-15 10:15:00,71.6,66.5,29.89,North,355,9.0,10.0,84,0.00,,BKN016,0.00,404.00,VWS V14.01,2013-06-15 15:15:00,
2013-06-15 10:20:00,71.5,66.4,29.89,North,350,12.0,13.0,84,0.00,,BKN016,0.00,339.00,VWS V14.01,2013-06-15 15:20:00,
2013-06-15 10:25:00,71.4,66.0,29.89,NNW,327,10.0,11.0,83,0.00,,BKN016,0.00,308.00,VWS V14.01,2013-06-15 15:25:00,
2013-06-15 10:30:00,71.3,65.9,29.90,North,350,7.0,8.0,83,0.00,,BKN016,0.00,315.00,VWS V14.01,2013-06-15 15:30:00,
2013-06-15 10:35:00,71.3,65.9,29.89,North,355,10.0,10.0,83,0.00,,BKN016,0.00,297.00,VWS V14.01,2013-06-15 15:35:00,
2013-06-15 10:40:00,71.3,66.2,29.89,North,5,7.0,7.0,84,0.00,,BKN016,0.00,330.00,VWS V14.01,2013-06-15 15:40:00,
2013-06-15 10:45:00,71.4,66.3,29.89,North,360,10.0,11.0,84,0.00,,BKN016,0.00,403.00,VWS V14.01,2013-06-15 15:45:00,
2013-06-15 10:50:00,71.7,66.6,29.89,NNW,342,11.0,11.0,84,0.00,,BKN016,0.00,357.00,VWS V14.01,2013-06-15 15:50:00,
2013-06-15 10:55:00,72.0,66.9,29.89,NNW,348,6.0,6.0,84,0.00,,BKN016,0.00,403.00,VWS V14.01,2013-06-15 15:55:00,
2013-06-15 11:00:00,72.2,66.8,29.89,North,355,5.0,5.0,83,0.00,,BKN016,0.00,343.00,VWS V14.01,2013-06-15 16:00:00,
2013-06-15 11:05:00,72.3,66.8,29.89,NNW,344,9.0,9.0,83,0.00,,BKN018,0.00,336.00,VWS V14.01,2013-06-15 16:05:00,
2013-06-15 11:10:00,72.4,66.9,29.89,NNW,346,9.0,10.0,83,0.00,,BKN018,0.00,452.00,VWS V14.01,2013-06-15 16:10:00,
2013-06-15 11:15:00,72.6,66.8,29.89,NNW,346,7.0,7.0,82,0.00,,BKN018,0.00,350.00,VWS V14.01,2013-06-15 16:15:00,
2013-06-15 11:20:00,72.7,67.2,29.88,WNW,295,4.0,6.0,83,0.00,,BKN018,0.00,327.00,VWS V14.01,2013-06-15 16:20:00,
2013-06-15 11:25:00,72.9,67.1,29.89,North,360,6.0,6.0,82,0.00,,BKN018,0.00,367.00,VWS V14.01,2013-06-15 16:25:00,
2013-06-15 11:30:00,73.0,67.2,29.88,North,355,10.0,10.0,82,0.00,,BKN018,0.00,469.00,VWS V14.01,2013-06-15 16:30:00,
2013-06-15 11:35:00,73.2,67.0,29.88,NNW,340,7.0,9.0,81,0.00,,BKN018,0.00,466.00,VWS V14.01,2013-06-15 16:35:00,
2013-06-15 11:40:00,73.2,66.7,29.88,NNW,331,7.0,8.0,80,0.00,,BKN018,0.00,457.00,VWS V14.01,2013-06-15 16:40:00,
2013-06-15 11:45:00,73.8,68.0,29.87,North,360,12.0,12.0,82,0.00,,BKN018,0.00,721.00,VWS V14.01,2013-06-15 16:45:00,
2013-06-15 11:50:00,74.3,66.2,29.87,North,5,10.0,13.0,76,0.00,,BKN018,0.00,717.00,VWS V14.01,2013-06-15 16:50:00,
2013-06-15 11:55:00,74.7,67.8,29.87,North,355,10.0,10.0,79,0.00,,BKN018,0.00,707.00,VWS V14.01,2013-06-15 16:55:00,
2013-06-15 12:00:00,75.1,66.6,29.87,North,350,11.0,13.0,75,0.00,,BKN018,0.00,696.00,VWS V14.01,2013-06-15 17:00:00,
2013-06-15 12:05:00,75.3,66.8,29.87,NNE,24,9.0,11.0,75,0.00,,OVC022,0.00,635.00,VWS V14.01,2013-06-15 17:05:00,
2013-06-15 12:10:00,75.1,66.6,29.87,NNW,348,11.0,12.0,75,0.00,,OVC022,0.00,617.00,VWS V14.01,2013-06-15 17:10:00,
2013-06-15 12:15:00,75.3,66.8,29.88,NW,321,9.0,11.0,75,0.00,,OVC022,0.00,478.00,VWS V14.01,2013-06-15 17:15:00,
2013-06-15 12:20:00,75.1,66.6,29.88,NNW,342,7.0,7.0,75,0.00,,OVC022,0.00,369.00,VWS V14.01,2013-06-15 17:20:00,
2013-06-15 12:25:00,74.9,65.3,29.89,NNW,333,5.0,7.0,72,0.00,,OVC022,0.00,304.00,VWS V14.01,2013-06-15 17:25:00,
2013-06-15 12:30:00,74.7,65.5,29.89,North,355,4.0,4.0,73,0.00,,SCT024,0.00,258.00,VWS V14.01,2013-06-15 17:30:00,
2013-06-15 12:35:00,74.3,64.7,29.90,NNE,30,3.0,5.0,72,0.00,,SCT024,0.00,229.00,VWS V14.01,2013-06-15 17:35:00,
2013-06-15 12:40:00,74.2,65.0,29.89,NW,320,0.0,2.0,73,0.00,,SCT024,0.00,260.00,VWS V14.01,2013-06-15 17:40:00,
2013-06-15 12:45:00,74.3,65.1,29.89,North,355,6.0,6.0,73,0.00,,SCT024,0.00,334.00,VWS V14.01,2013-06-15 17:45:00,
2013-06-15 12:50:00,74.4,65.2,29.89,NNE,18,6.0,6.0,73,0.00,,SCT024,0.00,392.00,VWS V14.01,2013-06-15 17:50:00,
2013-06-15 12:55:00,74.6,65.0,29.89,NNW,344,4.0,6.0,72,0.00,,SCT024,0.00,369.00,VWS V14.01,2013-06-15 17:55:00,
2013-06-15 13:00:00,74.8,64.8,29.90,North,355,4.0,4.0,71,0.00,,SCT024,0.00,336.00,VWS V14.01,2013-06-15 18:00:00,
2013-06-15 13:05:00,74.8,64.0,29.90,NNW,331,5.0,5.0,69,0.00,,SCT028,0.00,294.00,VWS V14.01,2013-06-15 18:05:00,
2013-06-15 13:10:00,74.8,65.2,29.89,NNW,348,6.0,6.0,72,0.00,,SCT028,0.00,267.00,VWS V14.01,2013-06-15 18:10:00,
2013-06-15 13:15:00,74.6,63.8,29.89,North,351,5.0,6.0,69,0.00,,SCT028,0.00,294.00,VWS V14.01,2013-06-15 18:15:00,
2013-06-15 13:20:00,74.5,64.9,29.89,North,355,5.0,7.0,72,0.00,,SCT028,0.00,323.00,VWS V14.01,2013-06-15 18:20:00,
2013-06-15 13:25:00,74.5,65.3,29.89,NNE,13,5.0,6.0,73,0.00,,SCT028,0.00,330.00,VWS V14.01,2013-06-15 18:25:00,
2013-06-15 13:30:00,74.5,64.5,29.88,NE,38,3.0,5.0,71,0.00,,SCT028,0.00,336.00,VWS V14.01,2013-06-15 18:30:00,
2013-06-15 13:35:00,74.5,64.5,29.88,NNE,18,5.0,5.0,71,0.00,,SCT028,0.00,338.00,VWS V14.01,2013-06-15 18:35:00,
2013-06-15 13:40:00,74.6,63.8,29.88,NNE,31,4.0,5.0,69,0.00,,SCT028,0.00,360.00,VWS V14.01,2013-06-15 18:40:00,
2013-06-15 13:45:00,74.8,64.0,29.88,North,5,4.0,5.0,69,0.00,,SCT028,0.00,436.00,VWS V14.01,2013-06-15 18:45:00,
2013-06-15 13:50:00,75.1,63.0,29.88,NNW,342,6.0,7.0,66,0.00,,SCT028,0.00,508.00,VWS V14.01,2013-06-15 18:50:00,
2013-06-15 13:55:00,75.5,64.2,29.88,North,355,5.0,6.0,68,0.00,,SCT028,0.00,531.00,VWS V14.01,2013-06-15 18:55:00,
2013-06-15 14:00:00,76.0,63.4,29.87,North,355,9.0,9.0,65,0.00,,SCT028,0.00,529.00,VWS V14.01,2013-06-15 19:00:00,
2013-06-15 14:05:00,76.0,63.4,29.86,North,355,7.0,9.0,65,0.00,,FEW030,0.00,454.00,VWS V14.01,2013-06-15 19:05:00,
2013-06-15 14:10:00,76.0,63.4,29.87,NNW,348,4.0,6.0,65,0.00,,FEW030,0.00,563.00,VWS V14.01,2013-06-15 19:10:00,
2013-06-15 14:15:00,76.4,63.3,29.87,North,360,10.0,10.0,64,0.00,,FEW030,0.00,907.00,VWS V14.01,2013-06-15 19:15:00,
2013-06-15 14:20:00,77.1,65.3,29.87,NNE,19,9.0,9.0,67,0.00,,FEW030,0.00,522.00,VWS V14.01,2013-06-15 19:20:00,
2013-06-15 14:25:00,76.9,63.4,29.87,North,11,11.0,12.0,63,0.00,,FEW030,0.00,504.00,VWS V14.01,2013-06-15 19:25:00,
2013-06-15 14:30:00,76.7,63.2,29.87,North,355,10.0,12.0,63,0.00,,FEW030,0.00,441.00,VWS V14.01,2013-06-15 19:30:00,
2013-06-15 14:35:00,76.4,63.8,29.87,North,360,11.0,12.0,65,0.00,,FEW030,0.00,489.00,VWS V14.01,2013-06-15 19:35:00,
2013-06-15 14:40:00,76.1,62.2,29.87,NNE,24,10.0,12.0,62,0.00,,FEW030,0.00,418.00,VWS V14.01,2013-06-15 19:40:00,
2013-06-15 14:45:00,75.7,63.1,29.87,NNE,21,15.0,15.0,65,0.00,,FEW030,0.00,350.00,VWS V14.01,2013-06-15 19:45:00,
2013-06-15 14:50:00,75.3,62.3,29.87,North,355,10.0,11.0,64,0.00,,FEW030,0.00,350.00,VWS V14.01,2013-06-15 19:50:00,
2013-06-15 14:55:00,75.1,63.8,29.86,North,9,10.0,11.0,68,0.00,,FEW030,0.00,471.00,VWS V14.01,2013-06-15 19:55:00,
2013-06-15 15:00:00,75.4,62.4,29.87,NNW,333,8.0,8.0,64,0.00,,FEW030,0.00,519.00,VWS V14.01,2013-06-15 20:00:00,
2013-06-15 15:05:00,76.0,63.0,29.87,NW,306,6.0,6.0,64,0.00,,BKN120,0.00,517.00,VWS V14.01,2013-06-15 20:05:00,
2013-06-15 15:10:00,76.5,62.1,29.87,NNE,18,5.0,5.0,61,0.00,,BKN120,0.00,598.00,VWS V14.01,2013-06-15 20:10:00,
2013-06-15 15:15:00,76.8,62.8,29.88,North,350,5.0,6.0,62,0.00,,BKN120,0.00,512.00,VWS V14.01,2013-06-15 20:15:00,
2013-06-15 15:20:00,77.3,64.2,29.88,NNW,327,5.0,5.0,64,0.00,,BKN120,0.00,1313.00,VWS V14.01,2013-06-15 20:20:00,
2013-06-15 15:25:00,78.3,62.3,29.88,NNE,22,5.0,5.0,58,0.00,,BKN120,0.00,1246.00,VWS V14.01,2013-06-15 20:25:00,
2013-06-15 15:30:00,78.7,63.2,29.87,North,355,6.0,6.0,59,0.00,,BKN120,0.00,575.00,VWS V14.01,2013-06-15 20:30:00,
2013-06-15 15:35:00,78.7,63.2,29.88,NNW,345,4.0,5.0,59,0.00,,BKN120,0.00,575.00,VWS V14.01,2013-06-15 20:35:00,
2013-06-15 15:40:00,79.1,64.5,29.87,NW,306,4.0,5.0,61,0.00,,BKN120,0.00,1039.00,VWS V14.01,2013-06-15 20:40:00,
2013-06-15 15:45:00,79.1,63.6,29.87,North,349,4.0,4.0,59,0.00,,BKN120,0.00,327.00,VWS V14.01,2013-06-15 20:45:00,
2013-06-15 15:50:00,78.8,62.3,29.87,WNW,299,4.0,5.0,57,0.00,,BKN120,0.00,921.00,VWS V14.01,2013-06-15 20:50:00,
2013-06-15 15:55:00,79.0,61.5,29.87,WNW,282,2.0,4.0,55,0.00,,BKN120,0.00,817.00,VWS V14.01,2013-06-15 20:55:00,
2013-06-15 16:00:00,79.5,61.9,29.86,NNW,336,3.0,3.0,55,0.00,,BKN120,0.00,847.00,VWS V14.01,2013-06-15 21:00:00,
2013-06-15 16:05:00,79.3,61.2,29.86,NNW,341,3.0,3.0,54,0.00,,FEW047,0.00,278.00,VWS V14.01,2013-06-15 21:05:00,
2013-06-15 16:10:00,78.5,60.5,29.86,NNW,340,3.0,3.0,54,0.00,,FEW047,0.00,387.00,VWS V14.01,2013-06-15 21:10:00,
2013-06-15 16:15:00,78.2,62.2,29.87,WSW,240,0.0,0.0,58,0.00,,FEW047,0.00,330.00,VWS V14.01,2013-06-15 21:15:00,
2013-06-15 16:20:00,78.7,61.2,29.86,NW,319,1.0,3.0,55,0.00,,FEW047,0.00,807.00,VWS V14.01,2013-06-15 21:20:00,
2013-06-15 16:25:00,79.5,62.5,29.86,North,9,1.0,1.0,56,0.00,,FEW047,0.00,738.00,VWS V14.01,2013-06-15 21:25:00,
2013-06-15 16:30:00,80.0,62.4,29.86,West,277,2.0,3.0,55,0.00,,FEW047,0.00,722.00,VWS V14.01,2013-06-15 21:30:00,
2013-06-15 16:35:00,80.3,61.1,29.86,WNW,302,0.0,2.0,52,0.00,,FEW047,0.00,708.00,VWS V14.01,2013-06-15 21:35:00,
2013-06-15 16:40:00,80.4,60.6,29.86,NW,321,0.0,1.0,51,0.00,,FEW047,0.00,749.00,VWS V14.01,2013-06-15 21:40:00,
2013-06-15 16:45:00,80.4,60.6,29.86,NW,304,5.0,5.0,51,0.00,,FEW047,0.00,738.00,VWS V14.01,2013-06-15 21:45:00,
2013-06-15 16:50:00,80.4,57.1,29.86,NW,313,1.0,1.0,45,0.00,,FEW047,0.00,721.00,VWS V14.01,2013-06-15 21:50:00,
2013-06-15 16:55:00,80.4,58.3,29.86,WNW,297,0.0,0.0,47,0.00,,FEW047,0.00,726.00,VWS V14.01,2013-06-15 21:55:00,
2013-06-15 17:00:00,80.3,57.0,29.86,WNW,296,0.0,1.0,45,0.00,,FEW047,0.00,390.00,VWS V14.01,2013-06-15 22:00:00,
2013-06-15 17:05:00,80.5,59.0,29.86,NNW,341,3.0,4.0,48,0.00,,FEW047,0.00,680.00,VWS V14.01,2013-06-15 22:05:00,
2013-06-15 17:10:00,80.7,59.2,29.86,NW,325,2.0,2.0,48,0.00,,FEW047,0.00,671.00,VWS V14.01,2013-06-15 22:10:00,
2013-06-15 17:15:00,80.7,57.4,29.86,NW,322,4.0,5.0,45,0.00,,CLR,0.00,207.00,VWS V14.01,2013-06-15 22:15:00,
2013-06-15 17:20:00,80.0,56.8,29.86,WNW,298,0.0,1.0,45,0.00,,CLR,0.00,680.00,VWS V14.01,2013-06-15 22:20:00,
2013-06-15 17:25:00,80.2,59.3,29.85,NW,313,4.0,4.0,49,0.00,,CLR,0.00,624.00,VWS V14.01,2013-06-15 22:25:00,
2013-06-15 17:30:00,80.3,55.8,29.85,WNW,301,6.0,6.0,43,0.00,,CLR,0.00,645.00,VWS V14.01,2013-06-15 22:30:00,
2013-06-15 17:35:00,80.2,55.7,29.85,NNW,342,0.0,3.0,43,0.00,,CLR,0.00,635.00,VWS V14.01,2013-06-15 22:35:00,
2013-06-15 17:40:00,80.2,55.0,29.85,NW,316,4.0,5.0,42,0.00,,CLR,0.00,471.00,VWS V14.01,2013-06-15 22:40:00,
2013-06-15 17:45:00,80.0,54.9,29.85,WNW,298,4.0,4.0,42,0.00,,CLR,0.00,519.00,VWS V14.01,2013-06-15 22:45:00,
2013-06-15 17:50:00,80.2,56.3,29.84,NW,325,7.0,7.0,44,0.00,,CLR,0.00,506.00,VWS V14.01,2013-06-15 22:50:00,
2013-06-15 17:55:00,80.2,55.0,29.84,NNW,327,4.0,5.0,42,0.00,,CLR,0.00,490.00,VWS V14.01,2013-06-15 22:55:00,
2013-06-15 18:00:00,80.3,56.4,29.84,WNW,294,1.0,1.0,44,0.00,,CLR,0.00,476.00,VWS V14.01,2013-06-15 23:00:00,
2013-06-15 18:05:00,80.3,56.4,29.84,NW,319,6.0,7.0,44,0.00,,CLR,0.00,461.00,VWS V14.01,2013-06-15 23:05:00,
2013-06-15 18:10:00,80.2,56.3,29.84,WNW,287,5.0,5.0,44,0.00,,CLR,0.00,448.00,VWS V14.01,2013-06-15 23:10:00,
2013-06-15 18:15:00,80.0,53.5,29.84,NNW,340,4.0,4.0,40,0.00,,CLR,0.00,432.00,VWS V14.01,2013-06-15 23:15:00,
2013-06-15 18:20:00,79.7,54.6,29.84,NW,313,5.0,6.0,42,0.00,,CLR,0.00,417.00,VWS V14.01,2013-06-15 23:20:00,
2013-06-15 18:25:00,79.5,55.7,29.84,NNW,328,2.0,4.0,44,0.00,,CLR,0.00,401.00,VWS V14.01,2013-06-15 23:25:00,
2013-06-15 18:30:00,79.4,54.3,29.84,NW,316,3.0,3.0,42,0.00,,CLR,0.00,388.00,VWS V14.01,2013-06-15 23:30:00,
2013-06-15 18:35:00,79.3,54.2,29.84,NW,304,3.0,3.0,42,0.00,,CLR,0.00,387.00,VWS V14.01,2013-06-15 23:35:00,
2013-06-15 18:40:00,79.4,56.2,29.84,WNW,300,2.0,3.0,45,0.00,,CLR,0.00,380.00,VWS V14.01,2013-06-15 23:40:00,
2013-06-15 18:45:00,79.5,55.7,29.84,NW,317,2.0,3.0,44,0.00,,CLR,0.00,341.00,VWS V14.01,2013-06-15 23:45:00,
2013-06-15 18:50:00,79.4,55.6,29.84,NW,313,6.0,6.0,44,0.00,,CLR,0.00,323.00,VWS V14.01,2013-06-15 23:50:00,
2013-06-15 18:55:00,79.1,55.3,29.84,NW,319,6.0,7.0,44,0.00,,CLR,0.00,309.00,VWS V14.01,2013-06-15 23:55:00,
2013-06-15 19:00:00,78.8,56.3,29.83,NNW,344,2.0,5.0,46,0.00,,CLR,0.00,294.00,VWS V14.01,2013-06-16 00:00:00,
2013-06-15 19:05:00,78.3,55.2,29.84,NW,324,7.0,7.0,45,0.00,,CLR,0.00,287.00,VWS V14.01,2013-06-16 00:05:00,
2013-06-15 19:10:00,77.8,54.8,29.84,NW,323,3.0,3.0,45,0.00,,CLR,0.00,278.00,VWS V14.01,2013-06-16 00:10:00,
2013-06-15 19:15:00,77.4,55.0,29.84,NW,313,4.0,7.0,46,0.00,,CLR,0.00,258.00,VWS V14.01,2013-06-16 00:15:00,
2013-06-15 19:20:00,76.8,53.9,29.85,WNW,303,5.0,7.0,45,0.00,,CLR,0.00,246.00,VWS V14.01,2013-06-16 00:20:00,
2013-06-15 19:25:00,76.4,53.5,29.85,NW,310,4.0,5.0,45,0.00,,CLR,0.00,232.00,VWS V14.01,2013-06-16 00:25:00,
2013-06-15 19:30:00,75.6,52.2,29.85,NNW,332,8.0,10.0,44,0.00,,CLR,0.00,98.00,VWS V14.01,2013-06-16 00:30:00,
2013-06-15 19:35:00,74.7,52.0,29.85,NNW,335,6.0,7.0,45,0.00,,CLR,0.00,216.00,VWS V14.01,2013-06-16 00:35:00,
2013-06-15 19:40:00,74.5,53.0,29.86,NW,316,6.0,7.0,47,0.00,,CLR,0.00,209.00,VWS V14.01,2013-06-16 00:40:00,
2013-06-15 19:45:00,74.5,52.4,29.86,NW,319,6.0,6.0,46,0.00,,CLR,0.00,188.00,VWS V14.01,2013-06-16 00:45:00,
2013-06-15 19:50:00,74.4,52.9,29.85,NW,315,4.0,5.0,47,0.00,,CLR,0.00,134.00,VWS V14.01,2013-06-16 00:50:00,
2013-06-15 19:55:00,73.9,54.7,29.86,WNW,298,1.0,3.0,51,0.00,,CLR,0.00,62.00,VWS V14.01,2013-06-16 00:55:00,
2013-06-15 20:00:00,73.4,54.2,29.85,NW,307,3.0,3.0,51,0.00,,CLR,0.00,109.00,VWS V14.01,2013-06-16 01:00:00,
2013-06-15 20:05:00,72.8,53.6,29.85,NW,308,0.0,1.0,51,0.00,,CLR,0.00,30.00,VWS V14.01,2013-06-16 01:05:00,
2013-06-15 20:10:00,72.1,54.0,29.85,NW,308,2.0,3.0,53,0.00,,CLR,0.00,32.00,VWS V14.01,2013-06-16 01:10:00,
2013-06-15 20:15:00,71.3,53.8,29.85,NW,308,1.0,2.0,54,0.00,,CLR,0.00,25.00,VWS V14.01,2013-06-16 01:15:00,
2013-06-15 20:20:00,70.4,54.9,29.86,NW,323,3.0,3.0,58,0.00,,CLR,0.00,23.00,VWS V14.01,2013-06-16 01:20:00,
2013-06-15 20:25:00,69.8,54.4,29.86,NW,309,1.0,2.0,58,0.00,,CLR,0.00,23.00,VWS V14.01,2013-06-16 01:25:00,
2013-06-15 20:30:00,69.3,53.9,29.86,NW,314,2.0,3.0,58,0.00,,CLR,0.00,25.00,VWS V14.01,2013-06-16 01:30:00,
2013-06-15 20:35:00,68.8,54.4,29.86,NW,314,1.0,1.0,60,0.00,,CLR,0.00,19.00,VWS V14.01,2013-06-16 01:35:00,
2013-06-15 20:40:00,68.2,53.8,29.86,NW,314,0.0,0.0,60,0.00,,CLR,0.00,16.00,VWS V14.01,2013-06-16 01:40:00,
2013-06-15 20:45:00,67.3,54.3,29.86,NW,314,0.0,0.0,63,0.00,,CLR,0.00,23.00,VWS V14.01,2013-06-16 01:45:00,
2013-06-15 20:50:00,66.5,53.5,29.86,NW,314,0.0,0.0,63,0.00,,CLR,0.00,12.00,VWS V14.01,2013-06-16 01:50:00,
2013-06-15 20:56:00,66.0,53.1,29.86,NW,314,0.0,0.0,63,0.00,,CLR,0.00,9.00,VWS V14.01,2013-06-16 01:56:00,
2013-06-15 21:01:00,65.5,54.3,29.86,NW,314,0.0,0.0,67,0.00,,CLR,0.00,7.00,VWS V14.01,2013-06-16 02:01:00,
2013-06-15 21:05:00,64.9,54.5,29.86,NW,314,0.0,0.0,69,0.00,,CLR,0.00,5.00,VWS V14.01,2013-06-16 02:05:00,
2013-06-15 21:11:00,64.4,53.6,29.86,NW,314,0.0,0.0,68,0.00,,CLR,0.00,0.00,VWS V14.01,2013-06-16 02:11:00,
2013-06-15 21:16:00,64.0,53.6,29.86,NW,314,0.0,0.0,69,0.00,,CLR,0.00,0.00,VWS V14.01,2013-06-16 02:16:00,
2013-06-15 21:21:00,63.7,53.7,29.86,NW,314,0.0,0.0,70,0.00,,CLR,0.00,0.00,VWS V14.01,2013-06-16 02:21:00,
2013-06-15 21:26:00,63.2,54.8,29.87,NW,314,0.0,0.0,74,0.00,,CLR,0.00,0.00,VWS V14.01,2013-06-16 02:26:00,
2013-06-15 21:31:00,62.6,51.5,29.87,NW,314,0.0,0.0,67,0.00,,CLR,0.00,0.00,VWS V14.01,2013-06-16 02:31:00,
2013-06-15 21:36:00,62.4,53.3,29.87,NW,314,0.0,0.0,72,0.00,,CLR,0.00,0.00,VWS V14.01,2013-06-16 02:36:00,
2013-06-15 21:41:00,62.2,53.8,29.87,NW,314,0.0,0.0,74,0.00,,CLR,0.00,0.00,VWS V14.01,2013-06-16 02:41:00,
2013-06-15 21:46:00,62.1,54.1,29.87,NW,314,0.0,0.0,75,0.00,,CLR,0.00,0.00,VWS V14.01,2013-06-16 02:46:00,
2013-06-15 21:51:00,61.6,54.0,29.87,NW,314,0.0,0.0,76,0.00,,CLR,0.00,0.00,VWS V14.01,2013-06-16 02:51:00,
2013-06-15 21:56:00,61.2,53.2,29.88,SW,229,1.0,1.0,75,0.00,,CLR,0.00,0.00,VWS V14.01,2013-06-16 02:56:00,
2013-06-15 22:01:00,60.9,53.7,29.88,SW,229,0.0,1.0,77,0.00,,CLR,0.00,0.00,VWS V14.01,2013-06-16 03:01:00,
2013-06-15 22:06:00,61.1,53.5,29.88,SW,227,1.0,2.0,76,0.00,,CLR,0.00,0.00,VWS V14.01,2013-06-16 03:06:00,
2013-06-15 22:11:00,60.7,53.1,29.88,SSW,192,3.0,3.0,76,0.00,,CLR,0.00,0.00,VWS V14.01,2013-06-16 03:11:00,
2013-06-15 22:16:00,60.4,52.8,29.88,SSW,193,0.0,0.0,76,0.00,,CLR,0.00,0.00,VWS V14.01,2013-06-16 03:16:00,
2013-06-15 22:21:00,60.2,54.7,29.88,SSW,192,0.0,0.0,82,0.00,,CLR,0.00,0.00,VWS V14.01,2013-06-16 03:21:00,
2013-06-15 22:26:00,59.5,54.3,29.88,SSW,193,0.0,0.0,83,0.00,,CLR,0.00,0.00,VWS V14.01,2013-06-16 03:26:00,
2013-06-15 22:31:00,59.0,54.2,29.89,SSW,193,0.0,0.0,84,0.00,,CLR,0.00,0.00,VWS V14.01,2013-06-16 03:31:00,
2013-06-15 22:36:00,58.8,54.0,29.89,SSW,193,0.0,0.0,84,0.00,,CLR,0.00,0.00,VWS V14.01,2013-06-16 03:36:00,
2013-06-15 22:41:00,58.6,53.8,29.89,SSW,192,0.0,0.0,84,0.00,,CLR,0.00,0.00,VWS V14.01,2013-06-16 03:41:00,
2013-06-15 22:46:00,58.0,52.9,29.89,SSW,193,0.0,0.0,83,0.00,,CLR,0.00,0.00,VWS V14.01,2013-06-16 03:46:00,
2013-06-15 22:51:00,58.0,51.9,29.89,SSW,192,0.0,0.0,80,0.00,,CLR,0.00,0.00,VWS V14.01,2013-06-16 03:51:00,
2013-06-15 22:56:00,58.7,52.6,29.88,SSW,193,0.0,0.0,80,0.00,,CLR,0.00,0.00,VWS V14.01,2013-06-16 03:56:00,
2013-06-15 23:01:00,58.8,52.7,29.88,SSW,192,0.0,0.0,80,0.00,,CLR,0.00,0.00,VWS V14.01,2013-06-16 04:01:00,
2013-06-15 23:06:00,59.5,52.3,29.88,SSW,193,2.0,2.0,77,0.00,,CLR,0.00,0.00,VWS V14.01,2013-06-16 04:06:00,
2013-06-15 23:11:00,59.8,52.2,29.88,SSW,192,2.0,2.0,76,0.00,,CLR,0.00,0.00,VWS V14.01,2013-06-16 04:11:00,
2013-06-15 23:16:00,59.7,52.1,29.88,South,174,3.0,3.0,76,0.00,,CLR,0.00,0.00,VWS V14.01,2013-06-16 04:16:00,
2013-06-15 23:21:00,60.7,51.6,29.88,South,171,2.0,2.0,72,0.00,,CLR,0.00,0.00,VWS V14.01,2013-06-16 04:21:00,
2013-06-15 23:26:00,61.5,51.6,29.88,South,171,3.0,3.0,70,0.00,,CLR,0.00,0.00,VWS V14.01,2013-06-16 04:26:00,
2013-06-15 23:31:00,61.8,51.1,29.88,SSE,168,4.0,4.0,68,0.00,,CLR,0.00,0.00,VWS V14.01,2013-06-16 04:31:00,
2013-06-15 23:36:00,62.3,51.2,29.88,South,171,1.0,1.0,67,0.00,,CLR,0.00,0.00,VWS V14.01,2013-06-16 04:36:00,
2013-06-15 23:41:00,61.8,51.9,29.88,South,171,0.0,0.0,70,0.00,,CLR,0.00,0.00,VWS V14.01,2013-06-16 04:41:00,
2013-06-15 23:46:00,60.9,51.1,29.88,South,171,0.0,2.0,70,0.00,,CLR,0.00,0.00,VWS V14.01,2013-06-16 04:46:00,
2013-06-15 23:52:00,60.4,51.0,29.88,South,190,2.0,3.0,71,0.00,,CLR,0.00,0.00,VWS V14.01,2013-06-16 04:52:00,
2013-06-15 23:57:00,60.1,51.1,29.88,South,172,0.0,0.0,72,0.00,,CLR,0.00,0.00,VWS V14.01,2013-06-16 04:57:00,